Zurück zum Katalog

STARLINK-1260

AktivKommunikationVLEO
NORAD 45404·PAYLOAD·🇺🇸 United States

Gestartet Mar 18, 2020 von Cape Canaveral Space Force Station

Loading…

Nächste Überflüge (nächste 24 Stunden)

TLE

AktuellSource: CelesTrak SupGP

Epoche: Sep 14, 2026, 21:32 UTC

1 45404C 20019AW  26257.89770833  .00007705  00000+0  15402-3 0  2576
2 45404  53.1518 319.5584 0003920  20.5038 297.0053 15.46194945    14

Verfolge STARLINK-1260 in Echtzeit mit AllMySat

Download on the App Store